Tiempo cada hora Cegled

Hoy, 18 Abril, Domingo

Tiempo Temperatura Precipitaciones Viento Presión Humedad
00:00 +6°C° 0 mm 2 mps 753 mmHg 78%
01:00 +6°C° 0 mm 2 mps 753 mmHg 79%
02:00 +6°C° 0 mm 2 mps 753 mmHg 79%
03:00 +5°C° 0 mm 2 mps 753 mmHg 80%
04:00 +5°C° 0 mm 2 mps 753 mmHg 80%
05:00 +6°C° 0.1 mm 2 mps 753 mmHg 79%
06:00 +6°C° 0.1 mm 2 mps 753 mmHg 78%
07:00 +6°C° 0.1 mm 2 mps 753 mmHg 77%
08:00 +7°C° 0.1 mm 2 mps 753 mmHg 76%
09:00 +8°C° 0.1 mm 2 mps 753 mmHg 75%
10:00 +8°C° 0.1 mm 3 mps 753 mmHg 73%
11:00 +8°C° 0.2 mm 2 mps 753 mmHg 77%
12:00 +8°C° 0.2 mm 2 mps 753 mmHg 80%
13:00 +8°C° 0.2 mm 2 mps 753 mmHg 84%
14:00 +8°C° 0.3 mm 2 mps 753 mmHg 86%
15:00 +8°C° 0.3 mm 1 mps 753 mmHg 89%
16:00 +8°C° 0.3 mm 1 mps 753 mmHg 91%
17:00 +8°C° 0.3 mm 1 mps 753 mmHg 92%
18:00 +8°C° 0.3 mm 1 mps 753 mmHg 93%
19:00 +6°C° 0.3 mm 2 mps 754 mmHg 95%
20:00 +6°C° 0.2 mm 2 mps 754 mmHg 95%
21:00 +7°C° 0.2 mm 1 mps 754 mmHg 95%
22:00 +7°C° 0.2 mm 1 mps 754 mmHg 95%
23:00 +7°C° 0.1 mm 1 mps 753 mmHg 95%

Mañana, 19 Abril, Lunes

Tiempo Temperatura Precipitaciones Viento Presión Humedad
00:00 +7°C° 0.1 mm 1 mps 753 mmHg 96%
01:00 +6°C° 0.1 mm 2 mps 753 mmHg 96%
02:00 +6°C° 0.1 mm 2 mps 753 mmHg 96%
03:00 +6°C° 0.1 mm 2 mps 753 mmHg 96%
04:00 +6°C° 0.1 mm 2 mps 753 mmHg 97%
05:00 +6°C° 0.1 mm 2 mps 753 mmHg 94%
06:00 +6°C° 0.1 mm 2 mps 753 mmHg 92%
07:00 +8°C° 0.1 mm 1 mps 753 mmHg 90%
08:00 +8°C° 0.1 mm 2 mps 753 mmHg 84%
09:00 +8°C° 0.1 mm 2 mps 752 mmHg 78%
10:00 +9°C° 0.1 mm 2 mps 752 mmHg 71%
11:00 +10°C° 0.1 mm 2 mps 752 mmHg 68%
12:00 +10°C° 0.1 mm 2 mps 752 mmHg 65%
13:00 +12°C° 0.1 mm 2 mps 752 mmHg 63%
14:00 +12°C° 0.1 mm 1 mps 752 mmHg 62%
15:00 +12°C° 0.1 mm 1 mps 751 mmHg 60%
16:00 +11°C° 0.1 mm 0 mps 751 mmHg 59%
17:00 +11°C° 0 mm 1 mps 751 mmHg 65%
18:00 +10°C° 0 mm 1 mps 751 mmHg 70%
19:00 +8°C° 0 mm 2 mps 751 mmHg 75%
20:00 +8°C° 0 mm 2 mps 751 mmHg 78%
21:00 +8°C° 0 mm 2 mps 751 mmHg 81%
22:00 +7°C° 0 mm 2 mps 751 mmHg 84%
23:00 +7°C° 0 mm 2 mps 751 mmHg 85%

Pasado mañana, 20 Abril, Martes

Tiempo Temperatura Precipitaciones Viento Presión Humedad
00:00 +7°C° 0 mm 2 mps 750 mmHg 86%
01:00 +7°C° 0 mm 2 mps 750 mmHg 87%
02:00 +7°C° 0 mm 2 mps 750 mmHg 87%
03:00 +7°C° 0 mm 2 mps 750 mmHg 87%
04:00 +6°C° 0 mm 2 mps 750 mmHg 87%
05:00 +7°C° 0 mm 2 mps 750 mmHg 85%
06:00 +7°C° 0 mm 2 mps 750 mmHg 83%
07:00 +8°C° 0 mm 2 mps 750 mmHg 81%
08:00 +9°C° 0.1 mm 2 mps 750 mmHg 77%
09:00 +10°C° 0.1 mm 2 mps 750 mmHg 72%
10:00 +11°C° 0.1 mm 3 mps 750 mmHg 67%
11:00 +12°C° 0.2 mm 3 mps 750 mmHg 65%
12:00 +12°C° 0.2 mm 3 mps 750 mmHg 62%
13:00 +13°C° 0.2 mm 3 mps 750 mmHg 59%
14:00 +13°C° 0.3 mm 3 mps 750 mmHg 60%
15:00 +13°C° 0.3 mm 3 mps 750 mmHg 61%
16:00 +13°C° 0.3 mm 3 mps 750 mmHg 62%
17:00 +12°C° 0.3 mm 2 mps 750 mmHg 69%
18:00 +10°C° 0.3 mm 2 mps 750 mmHg 76%
19:00 +9°C° 0.3 mm 2 mps 750 mmHg 83%
20:00 +8°C° 0 mm 2 mps 751 mmHg 85%
21:00 +8°C° 0 mm 2 mps 751 mmHg 88%
22:00 +7°C° 0 mm 2 mps 751 mmHg 90%
23:00 +7°C° 0.1 mm 2 mps 751 mmHg 91%

21 Abril, Miércoles

Tiempo Temperatura Precipitaciones Viento Presión Humedad
00:00 +7°C° 0.1 mm 2 mps 751 mmHg 92%
01:00 +6°C° 0.1 mm 2 mps 751 mmHg 93%
02:00 +6°C° 0 mm 2 mps 751 mmHg 93%
03:00 +6°C° 0 mm 2 mps 751 mmHg 93%
04:00 +4°C° 0 mm 3 mps 751 mmHg 94%
05:00 +5°C° 0 mm 3 mps 752 mmHg 90%
06:00 +7°C° 0 mm 3 mps 752 mmHg 86%
07:00 +8°C° 0 mm 3 mps 752 mmHg 82%
08:00 +10°C° 0 mm 4 mps 752 mmHg 75%
09:00 +12°C° 0 mm 4 mps 752 mmHg 68%
10:00 +13°C° 0 mm 4 mps 752 mmHg 62%
11:00 +14°C° 0.1 mm 4 mps 752 mmHg 57%
12:00 +15°C° 0.1 mm 4 mps 752 mmHg 53%
13:00 +16°C° 0.1 mm 5 mps 752 mmHg 49%
14:00 +15°C° 0 mm 4 mps 752 mmHg 52%
15:00 +16°C° 0 mm 3 mps 752 mmHg 56%
16:00 +14°C° 0 mm 3 mps 751 mmHg 59%
17:00 +13°C° 0 mm 3 mps 752 mmHg 60%
18:00 +13°C° 0 mm 3 mps 752 mmHg 61%
19:00 +12°C° 0 mm 3 mps 752 mmHg 63%
20:00 +12°C° 0 mm 3 mps 752 mmHg 61%
21:00 +11°C° 0 mm 3 mps 753 mmHg 60%
22:00 +11°C° 0 mm 3 mps 753 mmHg 58%
23:00 +10°C° 0 mm 3 mps 753 mmHg 64%

22 Abril, Jueves

Tiempo Temperatura Precipitaciones Viento Presión Humedad
00:00 +9°C° 0 mm 3 mps 753 mmHg 70%
01:00 +8°C° 0 mm 3 mps 753 mmHg 76%
02:00 +8°C° 0 mm 3 mps 753 mmHg 80%
03:00 +8°C° 0 mm 3 mps 753 mmHg 83%
04:00 +8°C° 0 mm 2 mps 753 mmHg 87%
05:00 +8°C° 0 mm 3 mps 754 mmHg 83%
06:00 +9°C° 0 mm 3 mps 754 mmHg 80%
07:00 +10°C° 0 mm 3 mps 754 mmHg 77%
08:00 +12°C° 0 mm 3 mps 754 mmHg 70%
09:00 +14°C° 0 mm 3 mps 754 mmHg 63%
10:00 +16°C° 0 mm 3 mps 754 mmHg 57%
11:00 +17°C° 0.2 mm 4 mps 754 mmHg 54%
12:00 +18°C° 0.2 mm 4 mps 754 mmHg 51%
13:00 +18°C° 0.2 mm 4 mps 754 mmHg 49%
14:00 +16°C° 0.4 mm 5 mps 754 mmHg 55%
15:00 +15°C° 0.4 mm 5 mps 754 mmHg 61%
16:00 +13°C° 0.4 mm 5 mps 754 mmHg 67%
17:00 +12°C° 0 mm 5 mps 754 mmHg 69%
18:00 +9°C° 0 mm 5 mps 755 mmHg 72%
19:00 +8°C° 0 mm 4 mps 755 mmHg 74%
20:00 +7°C° 0 mm 4 mps 755 mmHg 75%
21:00 +7°C° 0 mm 4 mps 755 mmHg 76%
22:00 +7°C° 0 mm 4 mps 755 mmHg 78%
23:00 +6°C° 0.2 mm 4 mps 756 mmHg 79%

23 Abril, Viernes

Tiempo Temperatura Precipitaciones Viento Presión Humedad
00:00 +6°C° 0.2 mm 5 mps 756 mmHg 81%
01:00 +6°C° 0.2 mm 5 mps 756 mmHg 82%
02:00 +6°C° 0.5 mm 5 mps 756 mmHg 84%
03:00 +6°C° 0.5 mm 4 mps 756 mmHg 85%
04:00 +5°C° 0.5 mm 3 mps 756 mmHg 87%
05:00 +6°C° 0.1 mm 4 mps 756 mmHg 82%
06:00 +6°C° 0.1 mm 4 mps 757 mmHg 78%
07:00 +6°C° 0.1 mm 4 mps 757 mmHg 73%
08:00 +7°C° 0 mm 4 mps 757 mmHg 67%
09:00 +8°C° 0 mm 4 mps 757 mmHg 61%
10:00 +11°C° 0 mm 4 mps 757 mmHg 55%
11:00 +11°C° 0 mm 4 mps 757 mmHg 51%
12:00 +12°C° 0 mm 3 mps 757 mmHg 47%
13:00 +13°C° 0 mm 3 mps 757 mmHg 43%
14:00 +13°C° 0 mm 3 mps 757 mmHg 44%
15:00 +14°C° 0 mm 2 mps 757 mmHg 44%
16:00 +14°C° 0 mm 2 mps 757 mmHg 44%
17:00 +12°C° 0 mm 2 mps 758 mmHg 50%
18:00 +10°C° 0 mm 2 mps 758 mmHg 55%
19:00 +9°C° 0 mm 2 mps 758 mmHg 61%
20:00 +8°C° 0 mm 2 mps 758 mmHg 63%
21:00 +7°C° 0 mm 2 mps 759 mmHg 66%
22:00 +7°C° 0 mm 2 mps 759 mmHg 68%
23:00 +6°C° 0 mm 2 mps 759 mmHg 70%
Mostrar más

Necesitamos Su Consentimiento

Meteoprog y nuestros Proveedores de Servicios pueden almacenar y acceder a sus datos personales como cookies, identificadores de dispositivo u otras tecnologías similares de su dispositivo y procesar dichos datos para personalizar contenido y anuncios, además de ofrecer funciones de redes sociales y analizar el tráfico.

  • Almacenar y/o acceder a información en su dispositivo

    Se puede almacenar o acceder a cookies, identificadores de dispositivo u otra información de su dispositivo para los fines anteriormente indicados.

  • Anuncios y contenido personalizados, medición de anuncios y contenido, percepciones del público, y desarrollo de productos

    Los anuncios y el contenido pueden personalizarse en base a su perfil. Se pueden añadir más datos para personalizar mejor los anuncios y contenidos. Se puede medir el rendimiento de los anuncios y contenidos. Se puede obtener la percepción sobre el público que ha visto los anuncios y contenidos. Dichos datos pueden usarse para desarrollar o mejorar la experiencia del usuario, sistemas y software.

Al hacer clic en ‘Estoy De Acuerdo’ usted permitirá el uso de las cookies, identificadores de dispositivo, balizas web u otras tecnologías similares indicadas. Su configuración puede cambiarse desde el navegador de su dispositivo.

Para ciertos fines, los intereses legítimos pueden ser considerados por encima del consentimiento. Puede leer más sobre ello en nuestra Política de Privacidad y Cookies.